Location: Unspecified
(58.9933°N, 5.6375°E)
Time: 12:46:21
(UTC+02:00)

Cosmos 2058 - Visible Passes

Search period start: 23 May 2017 00:00
Search period end: 02 June 2017 00:00
Orbit: 563 x 586 km, 82.5° (Epoch: 22 May)

Date Brightness Start Highest point End Pass type
(mag) Time Alt. Az. Time Alt. Az. Time Alt. Az.
23 May 5.4 02:53:21 10° ESE 02:55:47 15° E 02:58:14 10° NE visible
24 May 5.2 02:56:09 10° SE 02:59:02 19° E 03:01:56 10° NE visible
25 May 4.9 02:59:04 10° SE 03:02:18 23° E 03:05:33 10° NE visible
26 May 4.6 03:02:06 10° SSE 03:05:35 27° E 03:09:07 10° NNE visible
27 May 4.3 03:05:11 10° SSE 03:08:53 33° E 03:12:38 10° NNE visible
28 May 3.9 03:08:20 10° SSE 03:12:11 41° E 03:16:07 10° NNE visible
29 May 3.6 03:11:32 10° S 03:15:32 50° E 03:19:35 10° NNE visible
30 May 5.5 01:41:35 10° E 01:42:47 11° ENE 01:43:59 10° ENE visible
30 May 3.3 03:14:48 10° S 03:18:53 63° E 03:23:01 10° NNE visible
31 May 5.4 01:43:57 10° ESE 01:46:00 14° E 01:48:05 10° NE visible
31 May 3.0 03:18:07 10° S 03:22:14 78° E 03:26:25 10° NNE visible
01 Jun 5.2 01:46:38 10° ESE 01:49:15 16° E 01:51:52 10° NE visible
01 Jun 2.9 03:21:29 10° SSW 03:25:37 85° WNW 03:29:49 10° NNE visible
